This demonstration page uses our WeatherBlox Daily Observations layout. Learn more.

Left ArrowRight Arrow

39.29038, -76.61219

Hourly Observations for January 30, 2015

Temp ( °F °C ) Dew Point ( °F °C ) Humidity (%) Winds ( mph kmh ) Pressure ( in mb ) Visibility ( mi km ) Precip ( " mm )
12:54 am 00:54 undefined 36 2.2 27 -2.8 70 70 undefined N/A 29.92 1013 N/A 0.00 0.00
1:54 am 01:54 undefined 36 2.2 25 -3.9 64 64 undefined N/A 29.92 1013 N/A 0.00 0.00
2:54 am 02:54 undefined 36 2.2 25 -3.9 64 64 undefined N/A 29.91 1013 N/A 0.00 0.00
3:54 am 03:54 undefined 35 1.7 26 -3.3 70 70 undefined N/A 29.91 1013 N/A 0.00 0.00
4:54 am 04:54 undefined 38 3.3 26 -3.3 62 62 undefined N/A 29.91 1013 N/A 0.00 0.00
5:54 am 05:54 undefined 37 2.8 27 -2.8 67 67 undefined N/A 29.93 1013 N/A 0.00 0.00
6:54 am 06:54 undefined 37 2.8 26 -3.3 65 65 undefined N/A 29.96 1014 N/A 0.00 0.00
7:54 am 07:54 undefined 37 2.8 22 -5.6 54 54 undefined N/A 29.97 1015 N/A 0.00 0.00
8:54 am 08:54 undefined 38 3.3 23 -5 55 55 undefined N/A 29.98 1015 N/A 0.00 0.00
9:54 am 09:54 undefined 39 3.9 23 -5 53 53 undefined N/A 29.99 1016 N/A 0.00 0.00
10:54 am 10:54 undefined 40 4.4 22 -5.6 49 49 undefined N/A 30.00 1016 N/A 0.00 0.00
11:54 am 11:54 undefined 39 3.9 20 -6.7 46 46 undefined N/A 29.99 1016 N/A 0.00 0.00
12:54 pm 12:54 undefined 38 3.3 18 -7.8 44 44 undefined N/A 30.00 1016 N/A 0.00 0.00
1:54 pm 13:54 undefined 37 2.8 15 -9.4 41 41 undefined N/A 30.01 1016 N/A 0.00 0.00
2:54 pm 14:54 undefined 36 2.2 15 -9.4 42 42 undefined N/A 30.03 1017 N/A 0.00 0.00
3:54 pm 15:54 undefined 33 0.6 13 -10.6 43 43 undefined N/A 30.06 1018 N/A 0.00 0.00
4:54 pm 16:54 undefined 31 -0.6 12 -11.1 45 45 undefined N/A 30.10 1019 N/A 0.00 0.00
5:54 pm 17:54 undefined 29 -1.7 10 -12.2 45 45 undefined N/A 30.13 1020 N/A 0.00 0.00
6:54 pm 18:54 undefined 27 -2.8 10 -12.2 49 49 undefined N/A 30.15 1021 N/A 0.00 0.00
7:54 pm 19:54 undefined 26 -3.3 7 -13.9 44 44 undefined N/A 30.18 1022 N/A 0.00 0.00
8:54 pm 20:54 undefined 25 -3.9 7 -13.9 46 46 undefined N/A 30.21 1023 N/A 0.00 0.00
9:54 pm 21:54 undefined 23 -5 4 -15.6 44 44 undefined N/A 30.22 1023 N/A 0.00 0.00
10:54 pm 22:54 undefined 22 -5.6 3 -16.1 44 44 undefined N/A 30.23 1024 N/A 0.00 0.00
11:54 pm 23:54 undefined 21 -6.1 1 -17.2 41 41 undefined N/A 30.24 1024 N/A 0.00 0.00

Powered by AerisWeather